Regional Weather Roundup
Issued by NWS Charleston, SC

Home | Current Version | Previous Version | Text Only | Print | Product List | Glossary On
Versions: 1 2 3 4 5 6 7 8 9 10 11 12 13 14 15 16 17 18 19 20 21 22 23 24 25 26 27 28 29 30 31 32 33 34 35 36 37 38 39 40 41 42 43 44 45 46 47 48 49 50
000
ASUS42 KCHS 311913
RWRCHS

REGIONAL WEATHER ROUNDUP
NATIONAL WEATHER SERVICE CHARLESTON SC
300 PM EDT TUE MAY 31 2016

NOTE: "FAIR" INDICATES FEW OR NO CLOUDS BELOW 12,000 FEET WITH NO
SIGNIFICANT WEATHER AND/OR OBSTRUCTIONS TO VISIBILITY.

NOT ALL STATIONS ARE QUALITY CONTROLLED. USE DATA WITH CAUTION...
ESPECIALLY DEWPOINT OBSERVATIONS.

SCZ027-030-031-034>040-042>050-312000-
...SOUTHEAST SOUTH CAROLINA...

CITY           SKY/WX    TMP DP  RH WIND       PRES   REMARKS
N CHARLESTON   MOSUNNY   86  68  54 N13G20    29.89F
WATERFRONT PRK   N/A     83  71  66 N6        29.88F
MOUNT PLEASANT FAIR      79  73  83 NW8       29.90S HAZE
JOHNS ISLAND   FAIR      88  72  58 NW7       29.89F HX  94
PINOPOLIS        N/A     84  73  70 NW7       29.82F HX  91
MONCKS CORNER  FAIR      81  66  61 N8        29.90F
SUMMERVILLE    FAIR      86  70  58 N9        29.92S HX  90
BEAUFORT MCAS  MOSUNNY   87  70  56 N9        29.91F HX  92
BEAUFORT ARPT  MOCLDY    84  68  58 NW5       29.91S
HILTON HEAD IS MOSUNNY   84  72  65 S7        29.93F
WALTERBORO     MOCLDY    88  68  51 N6        29.92F HX  91
ALLENDALE      FAIR      86  70  58 NW5       29.92F HX  90

...SOUTHERN MIDLANDS AND PEE DEE...

CITY           SKY/WX    TMP DP  RH WIND       PRES   REMARKS
GEORGETOWN     NOT AVBL
KINGSTREE      FAIR      82  70  65 NW6       29.90F
ORANGEBURG     MOSUNNY   87  68  52 N7        29.92F HX  90
BARNWELL       FAIR      90  75  62 E6        29.93F HX 100
AIKEN          MOCLDY    84  64  51 CALM      29.97F
MANNING        FAIR      82  66  57 N12       29.90F
COLUMBIA       PTSUNNY   88  65  46 NE6       29.91F HX  90
SUMTER         MOSUNNY   86  68  54 NE6       29.88F
FLORENCE       SUNNY     87  68  52 N10       29.90F HX  90
MYRTLE BEACH   TSTM      75  64  69 NE9       29.91R FOG
N MYRTLE BEACH LGT RAIN  74  71  91 NE8       29.88S

$$

GAZ063-065-086>088-099>101-113>116-118-119-134>141-150-312000-
...SOUTHEAST GEORGIA...

CITY           SKY/WX    TMP DP  RH WIND       PRES   REMARKS
SAVANNAH ARPT  MOSUNNY   90  69  50 N5        29.91F HX  94
HUNTER AAF     MOSUNNY   84  75  74 SE7       29.89F HX  92
FORT STEWART   MOSUNNY   92  68  44 N3        29.88F HX  96
STATESBORO     MOSUNNY   89  71  55 NE5       29.92F HX  95
SYLVANIA       PTCLDY    88  71  57 NE3       29.93F HX  94
CLAXTON        FAIR      89  72  57 NE7       29.92S HX  96

...CSRA...CENTRAL AND FAR SOUTHEAST GEORGIA...

CITY           SKY/WX    TMP DP  RH WIND       PRES   REMARKS
THOMSON        MOSUNNY   89  68  50 S3        29.97F HX  93
AUGUSTA-BUSH   MOSUNNY   88  66  48 CALM      29.91F HX  90
AUGUSTA-DANIEL CLOUDY    88  66  48 VRB5      29.94F HX  90
SWAINSBORO     FAIR      91  64  40 N5        29.93F HX  93
VIDALIA        SUNNY     93  64  38 NE5       29.92F HX  95
EASTMAN        FAIR      92  60  34 N5        29.93F HX  92
HAZLEHURST     FAIR      94  58  30 CALM      29.89F HX  93
ALMA           MOSUNNY   93  63  36 CALM      29.90F HX  94
WAYCROSS       MOSUNNY   94  64  37 CALM      29.89F HX  95
JESUP          FAIR      81  64  57 E5        29.90F
BAXLEY         FAIR      95  61  31 N6        29.89F HX  95
BRUNSWICK      SUNNY     91  73  55 E12       29.91F HX 100
SAINT SIMONS   SUNNY     83  73  72 E14       29.91F

$$

SCZ027-028-034-036>038-045-046-048>050-GAZ119-141-312000-
...LAKE AND SUPPLEMENTAL COASTAL OBSERVATIONS...

STATION/POSITION TIME  TEMP    WIND        PRES    WAVE   SWELL
                       AIR SEA DIR/SP/G            HT/PER HT/PER/DIR
                 (UTC) (F)     (DEG/KT/KT) (MB)    (FT/S) (FT/S/D)
WINYAH BAY       1745   80     360/  7     1012.0
LAKE MURRAY      1800   81     190/  5/  6 1013.2F
ACE BASIN NERRS  NOT AVBL
FORT PULASKI     1800   78 76   90/ 10/ 12 1013.7F
SAPELO ISLAND    1800   85      90/ 10     1013.0F

$$

ANZ835-935-AMZ111-154-330-350-352-354-370-450-454-472-312000-
...C-MAN AND BUOY OBSERVATIONS...

STATION/POSITION TIME  TEMP    WIND        PRES    WAVE   SWELL
                       AIR SEA DIR/SP/G            HT/PER HT/PER/DIR
                 (UTC) (F)     (DEG/KT/KT) (MB)    (FT/S) (FT/S/D)
BUOY 41004       1850   76 77  250/  6/  8 1012.2F   3/ 8   3/ 8
BUOY 41008       1850   76 79  100/  8/  8 1013.3F   3/ 8   3/100/ 8
FOLLY BEACH CMAN 1900   80     170/  6/  7 1012.6F
CAPERS NEARSHORE 1808   80 77  200/  4/  6 1012.4F
FRIPP NEARSHORE  1808   79 78   40/  4/  6 1012.5F


STATION/POSITION TIME  TEMP    WIND        PRES    WAVE   SWELL
                       AIR SEA DIR/SP/G            HT/PER HT/PER/DIR
                 (UTC) (F)     (DEG/KT/KT) (MB)    (FT/S) (FT/S/D)
5E ST. MARYS GA  1801      81                N/A     2/ 8
FRYING PAN BUOY  1800   78 80  160/ 12/ 16 1010.5F
BUOY 41025       1850   78 81   70/  4/  4 1013.6F   4/ 8   3/130/ 8
CAPE LOOKOUT NC  1900   75      50/ 16/ 18 1012.7F
BUOY 41002       1850   77 77  150/ 12/ 14 1014.5F   4/ 7   3/110/ 7
BUOY 41010       1820   80 80  200/  8/ 10 1014.6F
ST AUGUSTINE FL  1900   80 81  140/ 12/ 14 1013.7F


$$




USA.gov is the U.S. government's official web portal to all federal, state and local government web resources and services.